Find Starlink 35145

NORAD ID: 65685 Int'l Des: 2025-212 Owner: SPXS Country: US Constellation: starlink operational
LEOCIRCULAR

Current View

Loading 3D Globe...

About Starlink 35145

Description loading...

Upcoming Passes

Passes for default location (London). Set your location on the main map for personalized predictions.

Altitude History

Loading altitude history...

Two-Line Element Set

1 65685U 25212K 26151.16668980 -.00009651 00000-0 -27471-3 0 9998
2 65685 53.1596 322.5776 0001191 61.5174 209.3075 15.34416883 5812
Epoch: May 31, 2026 • Age: 7 hours

Current Status

Altitude 468.3 km
Velocity 7.64 km/s
Sub-Earth Point 52.66°N, 15.12°W
Launch Date Sep 21, 2025
Age 0.6 years
Type internet

Technical Details

Classification Payload
Mass 575.00 kg
Dry Mass 530.00 kg
Total Mass 575.00 kg
Length 0.30 m
Diameter 4.10 m
Span 29.00 m
Shape Box + pan
Manufacturer SPXS
Bus Type Starlink V2MO
Phase Status In Orbit
Owner/State SPXS/US

Most Searched